STARLINK-34287

Last updated on Sat Jul 19 2025 00:02:07 GMT+0000 (Coordinated Universal Time)

1 64670U 25139G 25199.58335648 .00035617 00000+0 64605-3 0 9996 2 64670 53.1594 138.1700 0000832 100.5971 87.2334 15.49285693 4382
UTC large
Height (km)
Speed (km/s)
/
Latitude / Longitude
Inclination (degrees)
Orbital Period (minutes)
Azimuth
Elevation
Range (km)
Doppler Factor

Next 0 passes for location: London (51.5072 / 0.1276)

Sorry there are no passes over London.